Погода в Атильо

Пуэрто-Рико     18°29′10″N   66°49′29″W
темп.,
°C
ветер,
м/с
пор.,
м/с
влажн.,
%
обл.,
%
осадки,
мм/ч
давл.,
гПа
погр.,
м
9 августа, вт
вт923:00+27в812810 0.1 1016922
02:00+26в812810 0.1 1015960
05:00+25вюв610852 0.1 1015531
08:00+28в696745 0.2 1017918
11:00+30всв9106377 0.1 10171162
14:00+29всв996869 0.1 10161006
17:00+28всв8975100 0.0 1015948
20:00+26всв71083100 0.4 1017685
10 августа, ср
ср1023:00+26в71085100 0.5 1017675
02:00+25вюв578792 0.6 1015452
05:00+24вюв458837 0.1 1016338
08:00+26в3778100 0.1 1017459
11:00+30всв776199 0.0 10171110
14:00+29св101068100 0.0 1016577
17:00+28всв101174100 0.1 1015636
20:00+27в91183100 0.9 1016578
11 августа, чт
чт1123:00+25вюв6884100 0.0 1017448
02:00+24юв4583100 0.0 1015276
05:00+24юв3585100 0.0 1015210
08:00+26в587618 0.0 1016660
11:00+29всв986775 0.1 1016910
14:00+29всв11116969 0.6 1014774
17:00+28всв9117590 2.7 1014444
20:00+26в7982100 4.9 1015389
12 августа, пт
пт1223:00+25в588434 0.2 1016433
02:00+24вюв468723 0.2 1015328
05:00+24вюв4587100 0.0 1015274
08:00+26вюв487998 0.0 1016585
11:00+30всв886276 0.0 10161324
14:00+29св12116868 0.0 1014642
17:00+28всв101170100 0.1 1013655
20:00+27в8107610 0.2 1015515
13 августа, сб
сб1323:00+25вюв57825 0.0 1016448
02:00+24вюв4685100 0.0 1015333
05:00+23вюв45868 0.0 1015272
08:00+27в587094 0.0 1016875
11:00+29всв896729 0.1 10161197
14:00+29св10107124 0.3 1014669
17:00+27всв101176100 2.6 1014586
20:00+27всв810805 2.6 1014534